[[{"header":{"parameterUnit":"m.s-1","parameterCategory":1,"la1":30.2991,"la2":30.254,"lo1":-89.0895,"lo2":-89.0444,"dy":0.0017,"dx":0.0017,"nx":28,"ny":28,"refTime":"2025-04-03T21:00:00:Z","depth":0,"parameterNumber":2,"parameterNumberName":"U-component_of_WINDS"},"data":[0,0,0,0,0,0,0,0,0,0,0,0,0,0,0,0,0,0,0,0,0,0,0,0,0,0,0,0,0,0,0,0,0,0,0,0,0,0,0,0,0,0,0,0,0,0,0,0,0,0,0,0,0,0,0,0,0,0,-5.1359,-5.136,0,-5.1503,-5.1504,-5.1506,-5.153,-5.1528,-5.1527,-5.1526,-5.1672,-5.1677,-5.1682,0,0,0,0,0,0,0,0,0,0,0,0,0,-5.1103,-5.1107,-5.1358,-5.136,-5.1362,-5.1502,-5.1504,-5.1506,-5.153,-5.1528,-5.1527,-5.1525,-5.167,-5.1676,-5.1682,0,0,0,0,0,0,0,0,0,0,0,0,0,-5.1227,-5.1109,-5.1358,-5.1391,-5.1395,-5.1502,-5.1505,-5.1507,-5.153,-5.1528,-5.1526,-5.1525,-5.1668,-5.1675,-5.1683,-5.1767,0,0,-5.1706,-5.1709,0,0,0,0,0,0,0,0,-5.122,-5.1236,-5.1384,-5.1389,-5.1394,-5.1496,-5.1468,-5.1594,-5.1531,-5.1479,-5.1526,-5.1524,-5.1615,-5.1627,-5.1658,-5.1774,-5.178,-5.1707,-5.1711,-5.1715,-5.1717,0,0,0,0,0,0,0,-5.1211,-5.123,-5.1415,-5.1386,-5.1392,-5.1398,-5.1414,-5.1492,-5.1555,-5.1483,-5.1485,-5.1502,-5.1617,-5.165,-5.1661,-5.1782,-5.1707,-5.1713,-5.1718,-5.1721,-5.1975,-5.1977,0,0,0,0,0,0,-5.1197,-5.1223,-5.1411,-5.142,-5.1301,-5.1404,-5.1421,-5.1465,-5.1555,-5.1567,-5.1503,-5.1503,-5.1638,-5.1652,-5.1666,-5.177,-5.1715,-5.1722,-5.1726,-5.1972,-5.1975,-5.1978,0,0,0,0,0,0,-5.1191,-5.1214,-5.1405,-5.1322,-5.1347,-5.141,-5.1459,-5.1469,-5.1502,-5.157,-5.1581,-5.1526,-5.1637,-5.1656,-5.1742,-5.1775,-5.1725,-5.1732,-5.197,-5.1973,-5.1976,-5.1977,0,0,0,0,0,0,-5.1184,-5.1211,-5.1244,-5.1323,-5.1351,-5.1478,-5.1462,-5.1473,-5.1516,-5.1516,-5.1594,-5.1605,-5.1637,-5.1731,-5.1749,-5.1785,-5.1738,-5.1967,-5.1971,-5.1975,-5.1975,-5.198,-5.1985,0,0,0,0,0,-5.1175,-5.1238,-5.1245,-5.1268,-5.1393,-5.148,-5.1496,-5.1532,-5.1518,-5.1551,-5.1595,-5.1603,-5.1769,-5.1739,-5.1761,-5.1799,-5.1965,-5.197,-5.1975,-5.1972,-5.1979,-5.1985,0,0,0,0,0,0,-5.1161,-5.1249,-5.1258,-5.1349,-5.1407,-5.1484,-5.1526,-5.1539,-5.1602,-5.1599,-5.1641,-5.1659,-5.1742,-5.178,-5.1745,-5.1885,-5.1866,-5.1876,-5.1857,-5.1864,-5.1869,-5.1857,-5.1744,0,0,0,0,0,-5.1168,-5.1232,-5.1306,-5.1379,-5.1407,-5.1462,-5.1501,-5.1524,-5.1586,-5.161,-5.166,-5.1719,-5.1785,-5.1827,-5.1891,-5.1982,-5.1998,-5.2019,-5.2024,-5.2028,-5.2034,-5.2084,-5.2094,-5.1994,-5.1994,-5.1994,0,0,-5.1184,-5.124,-5.1278,-5.1377,-5.1425,-5.1489,-5.1482,-5.155,-5.1598,-5.162,-5.1704,-5.1743,-5.1812,-5.19,-5.1942,-5.1934,-5.2067,-5.2034,-5.2037,-5.2041,-5.209,-5.21,-5.2108,-5.1997,-5.1997,-5.1996,0,0,-5.1245,-5.1295,-5.1361,-5.1409,-5.1482,-5.1518,-5.1534,-5.161,-5.1637,-5.1722,-5.174,-5.1798,-5.1911,-5.1959,-5.1998,-5.208,-5.2089,-5.21,-5.2126,-5.2174,-5.2182,-5.2189,-5.2216,-5.2226,-5.2107,-5.2107,-5.2107,0,-5.1255,-5.1353,-5.1393,-5.1461,-5.1503,-5.1528,-5.1595,-5.164,-5.173,-5.1758,-5.1749,-5.1891,-5.194,-5.2039,-5.2059,-5.2091,-5.2109,-5.2089,-5.2178,-5.2185,-5.2193,-5.2219,-5.2229,-5.2108,-5.2108,-5.2107,-5.2107,0,-5.1361,-5.1429,-5.1473,-5.156,-5.1608,-5.1675,-5.1725,-5.1769,-5.1789,-5.1826,-5.1913,-5.1973,-5.2049,-5.2075,-5.2095,-5.2178,-5.217,-5.2169,-5.2151,-5.2202,-5.2228,-5.2238,-5.2109,-5.2108,-5.2108,-5.2108,0,0,-5.1414,-5.1523,-5.1538,-5.1578,-5.1661,-5.1714,-5.1783,-5.1858,-5.1895,-5.1957,-5.2014,-5.211,-5.211,-5.2154,-5.218,-5.2223,-5.2282,-5.2217,-5.2219,-5.2225,-5.2376,-5.2374,-5.2385,-5.229,-5.2293,-5.2294,-5.2369,0,-5.1483,-5.1605,-5.1644,-5.1746,-5.1808,-5.1834,-5.1894,-5.1951,-5.1988,-5.2047,-5.2089,-5.2155,-5.215,-5.2177,-5.2221,-5.2266,-5.2313,-5.2261,-5.2343,-5.2345,-5.2321,-5.2399,-5.2397,-5.2464,-5.2379,-5.2381,-5.2383,0,-5.1578,-5.1642,-5.175,-5.1826,-5.1854,-5.1907,-5.1979,-5.2035,-5.2101,-5.2126,-5.2176,-5.2199,-5.2272,-5.2252,-5.2351,-5.2315,-5.2352,-5.2379,-5.2383,-5.2389,-5.2364,-5.2404,-5.2487,-5.2496,-5.2399,-5.2398,-5.2397,0,-5.1603,-5.1717,-5.1796,-5.183,-5.192,-5.1957,-5.1996,-5.2061,-5.2104,-5.2168,-5.2196,-5.2268,-5.2306,-5.2361,-5.2402,-5.2384,-5.2498,-5.2482,-5.2519,-5.2518,-5.2539,-5.2536,-5.2625,-5.2567,-5.2567,-5.2567,-5.2566,0,-5.1674,-5.1739,-5.1808,-5.1856,-5.193,-5.1975,-5.2046,-5.2087,-5.2145,-5.2201,-5.2229,-5.2282,-5.2335,-5.2395,-5.2428,-5.2505,-5.2523,-5.2544,-5.2551,-5.2539,-5.2536,-5.2561,-5.2556,-5.2569,-5.2569,-5.2568,-5.2568,0,-5.1712,-5.1762,-5.185,-5.1929,-5.1951,-5.2001,-5.2069,-5.2117,-5.2157,-5.2228,-5.2248,-5.231,-5.2382,-5.243,-5.2522,-5.2544,-5.2627,-5.2635,-5.2604,-5.2607,-5.2641,-5.2636,-5.2747,-5.2763,-5.2696,-5.2696,-5.2697,0,-5.1753,-5.1803,-5.1889,-5.1929,-5.1969,-5.2033,-5.2078,-5.2125,-5.217,-5.225,-5.2288,-5.2362,-5.2423,-5.2537,-5.259,-5.266,-5.2669,-5.2703,-5.2679,-5.2666,-5.2666,-5.2662,-5.2666,-5.2705,-5.2705,-5.2706,-5.2706,0,-5.1819,-5.1841,-5.1904,-5.1977,-5.2029,-5.2088,-5.2147,-5.2179,-5.2236,-5.2286,-5.236,-5.2407,-5.2502,-5.2574,-5.265,-5.2691,-5.2708,-5.2714,-5.2726,-5.2713,-5.2692,-5.2701,-5.2611,-5.271,-5.271,-5.271,-5.2709,-5.2709,-5.1858,-5.1904,-5.1971,-5.2041,-5.2091,-5.2145,-5.2194,-5.2241,-5.2304,-5.2384,-5.2409,-5.2485,-5.2551,-5.2655,-5.2697,-5.2758,-5.2754,-5.2772,-5.2776,-5.2779,-5.2778,-5.2685,-5.2772,-5.2772,-5.2772,-5.2772,-5.2772,0,-5.1923,-5.1968,-5.2032,-5.2114,-5.2169,-5.2183,-5.2249,-5.2294,-5.2361,-5.2422,-5.2482,-5.2567,-5.2638,-5.2698,-5.2771,-5.2808,-5.2818,-5.2826,-5.2822,-5.2831,-5.2778,-5.2759,-5.2817,-5.2817,-5.2817,-5.2817,-5.2817,-5.2817,-5.1963,-5.2041,-5.2072,-5.2175,-5.222,-5.2295,-5.2332,-5.2383,-5.2431,-5.2525,-5.2585,-5.2624,-5.2684,-5.2762,-5.2828,-5.2844,-5.2868,-5.2874,-5.2891,-5.284,-5.2835,-5.283,-5.2812,-5.288,-5.288,-5.2939,-5.294,-5.294]},{"header":{"parameterUnit":"m.s-1","parameterCategory":1,"la1":30.2991,"la2":30.254,"lo1":-89.0895,"lo2":-89.0444,"dy":0.0017,"dx":0.0017,"nx":28,"ny":28,"refTime":"2025-04-03T21:00:00:Z","depth":0,"parameterNumber":3,"parameterNumberName":"V-component_of_WINDS"},"data":[0,0,0,0,0,0,0,0,0,0,0,0,0,0,0,0,0,0,0,0,0,0,0,0,0,0,0,0,0,0,0,0,0,0,0,0,0,0,0,0,0,0,0,0,0,0,0,0,0,0,0,0,0,0,0,0,0,0,4.3409,4.3411,0,4.357,4.3572,4.3574,4.3622,4.3622,4.3621,4.362,4.3782,4.3787,4.3792,0,0,0,0,0,0,0,0,0,0,0,0,0,4.3143,4.3148,4.3409,4.3411,4.3413,4.357,4.3572,4.3574,4.3622,4.3622,4.3621,4.362,4.3781,4.3787,4.3793,0,0,0,0,0,0,0,0,0,0,0,0,0,4.3277,4.315,4.3409,4.3456,4.3462,4.3569,4.3572,4.3575,4.3623,4.3621,4.362,4.3619,4.3779,4.3786,4.3794,4.3865,0,0,4.3817,4.382,0,0,0,0,0,0,0,0,4.3269,4.3287,4.3447,4.3453,4.346,4.3575,4.3538,4.3672,4.3623,4.3562,4.362,4.3619,4.3714,4.3727,4.376,4.3872,4.3879,4.3818,4.3822,4.3826,4.3828,0,0,0,0,0,0,0,4.326,4.328,4.3473,4.3449,4.3457,4.3469,4.3487,4.3564,4.3643,4.3567,4.3571,4.3589,4.3717,4.3752,4.3764,4.3882,4.3817,4.3824,4.3829,4.3832,4.4064,4.4065,0,0,0,0,0,0,4.3243,4.3272,4.3468,4.3477,4.336,4.3475,4.3495,4.3539,4.3642,4.3657,4.359,4.3591,4.374,4.3755,4.377,4.3862,4.3825,4.3833,4.3837,4.4062,4.4064,4.4066,0,0,0,0,0,0,4.3237,4.326,4.3461,4.3376,4.3402,4.3481,4.353,4.3543,4.3578,4.366,4.3674,4.3611,4.374,4.3759,4.3842,4.3868,4.3836,4.3843,4.406,4.4063,4.4065,4.4045,0,0,0,0,0,0,4.3229,4.3257,4.3285,4.3376,4.3407,4.353,4.3532,4.3547,4.3591,4.3594,4.3683,4.3697,4.374,4.383,4.3849,4.3878,4.3849,4.4058,4.4061,4.4064,4.4044,4.4046,4.4049,0,0,0,0,0,4.3219,4.3272,4.3286,4.3309,4.3443,4.3531,4.3549,4.3598,4.3593,4.3622,4.3675,4.3694,4.3862,4.3838,4.386,4.3892,4.4057,4.406,4.4064,4.4042,4.4046,4.4049,0,0,0,0,0,0,4.3181,4.3285,4.3302,4.3385,4.3449,4.354,4.3577,4.36,4.3666,4.3666,4.3724,4.3744,4.3822,4.3865,4.3836,4.3967,4.396,4.3968,4.3936,4.394,4.3943,4.3931,4.3855,0,0,0,0,0,4.3182,4.3245,4.3333,4.3398,4.343,4.3498,4.3538,4.3571,4.3639,4.3666,4.3725,4.379,4.3858,4.3901,4.3968,4.405,4.4071,4.4083,4.4085,4.4087,4.4093,4.4142,4.4149,4.4077,4.4077,4.4077,0,0,4.3185,4.325,4.3286,4.3392,4.3446,4.351,4.352,4.3587,4.3636,4.3676,4.3759,4.3804,4.3881,4.3964,4.4003,4.4002,4.4118,4.4091,4.4092,4.4098,4.4147,4.4153,4.4159,4.408,4.4079,4.4079,0,0,4.3224,4.3279,4.3341,4.3395,4.3476,4.3522,4.3536,4.3624,4.3656,4.374,4.3772,4.3831,4.3945,4.4,4.4042,4.4104,4.4125,4.4124,4.4138,4.4185,4.419,4.4196,4.4219,4.4227,4.413,4.413,4.413,0,4.3217,4.3316,4.3369,4.3436,4.3482,4.3523,4.3587,4.3636,4.3735,4.3766,4.3763,4.391,4.3964,4.4062,4.4078,4.411,4.413,4.4114,4.4185,4.4191,4.4197,4.422,4.4229,4.413,4.413,4.413,4.413,0,4.3305,4.3374,4.3414,4.351,4.3561,4.3625,4.3688,4.3733,4.3762,4.3808,4.3893,4.396,4.4043,4.4068,4.4096,4.417,4.4167,4.4174,4.4168,4.4202,4.4225,4.4235,4.4129,4.4129,4.4129,4.413,0,0,4.3324,4.345,4.3464,4.3509,4.3603,4.3657,4.3723,4.3805,4.3843,4.391,4.3969,4.4066,4.4075,4.4123,4.4157,4.4198,4.4246,4.4201,4.4203,4.4208,4.4334,4.4329,4.4338,4.426,4.4262,4.4263,4.4328,0,4.3376,4.3498,4.3548,4.3647,4.3712,4.3753,4.3811,4.3875,4.392,4.3982,4.4031,4.4101,4.4105,4.4135,4.4177,4.4231,4.4272,4.4227,4.4315,4.4318,4.4296,4.435,4.4344,4.4402,4.4337,4.4338,4.434,0,4.3453,4.3522,4.3628,4.3717,4.3746,4.3797,4.3878,4.3935,4.4009,4.404,4.4095,4.4128,4.42,4.4189,4.4291,4.4259,4.4298,4.433,4.4334,4.4345,4.4331,4.4363,4.4421,4.443,4.4354,4.4353,4.4352,0,4.3458,4.3578,4.3657,4.3694,4.3799,4.3835,4.388,4.3953,4.3999,4.4069,4.41,4.4176,4.4219,4.4277,4.4331,4.4317,4.4428,4.4421,4.4455,4.4454,4.4477,4.4475,4.4543,4.45,4.45,4.45,4.45,0,4.3512,4.3575,4.3661,4.371,4.3783,4.384,4.3911,4.3958,4.4024,4.4083,4.4122,4.4176,4.4243,4.4306,4.4348,4.4427,4.4445,4.4472,4.4482,4.4469,4.4466,4.4496,4.4494,4.4502,4.4502,4.4501,4.4501,0,4.353,4.359,4.3679,4.3772,4.3796,4.3846,4.3925,4.3975,4.4022,4.4097,4.4117,4.4192,4.4269,4.4328,4.4427,4.4455,4.4539,4.4549,4.4514,4.452,4.4552,4.4548,4.4643,4.4659,4.4603,4.4604,4.4604,0,4.3561,4.3611,4.3709,4.3752,4.3798,4.3866,4.3914,4.3973,4.4022,4.4111,4.415,4.423,4.4297,4.4418,4.4481,4.4557,4.4571,4.4599,4.4583,4.4569,4.4574,4.457,4.4577,4.4601,4.4601,4.4602,4.4602,0,4.361,4.3638,4.3706,4.3786,4.3843,4.3908,4.3974,4.4007,4.4077,4.413,4.421,4.4262,4.4365,4.4444,4.4528,4.4574,4.4601,4.4607,4.4619,4.4606,4.4585,4.4599,4.4521,4.4604,4.4604,4.4604,4.4604,4.4604,4.3637,4.3684,4.3762,4.3837,4.3893,4.3954,4.4006,4.4061,4.4129,4.4218,4.4248,4.4331,4.4405,4.452,4.4568,4.4633,4.4634,4.4651,4.4656,4.466,4.466,4.4573,4.4649,4.4649,4.4649,4.4649,4.4649,0,4.369,4.3742,4.3811,4.3903,4.3963,4.3983,4.4057,4.4106,4.4179,4.4246,4.4312,4.4405,4.4483,4.4552,4.4633,4.4672,4.4686,4.4692,4.469,4.4701,4.4654,4.4636,4.4679,4.4679,4.4679,4.4679,4.4679,4.4679,4.3725,4.3807,4.3844,4.3954,4.4006,4.4088,4.4129,4.4186,4.4241,4.4343,4.4408,4.4453,4.4522,4.4609,4.4681,4.47,4.4728,4.4731,4.4752,4.4707,4.4704,4.47,4.4684,4.4736,4.4736,4.4795,4.4795,4.4795]}]]